Time,TemperatureF,DewpointF,PressureIn,WindDirection,WindDirectionDegrees,WindSpeedMPH,WindSpeedGustMPH,Humidity,HourlyPrecipIn,Conditions,Clouds,dailyrainin,SolarRadiationWatts/m^2,SoftwareType,DateUTC
2013-03-02 00:01:00,33.0,28.0,-100.00,NNW,347,0.0,3.0,80,0.00,,,0.00,0.000000,,2013-03-02 06:01:00,
2013-03-02 00:32:00,32.0,28.0,-100.00,NE,40,0.0,3.0,84,0.00,,,0.00,0.000000,,2013-03-02 06:32:00,
2013-03-02 00:42:00,32.0,28.0,-100.00,NE,40,0.0,3.0,84,0.00,,,0.00,0.000000,,2013-03-02 06:42:00,
2013-03-02 00:52:00,32.0,28.0,-100.00,NE,40,0.0,3.0,84,0.00,,,0.00,0.000000,,2013-03-02 06:52:00,
2013-03-02 01:01:00,32.0,28.0,-100.00,NE,40,0.0,3.0,84,0.00,,,0.00,0.000000,,2013-03-02 07:01:00,
2013-03-02 01:32:00,31.0,27.0,-100.00,WSW,244,0.0,3.0,84,0.00,,,0.00,0.000000,,2013-03-02 07:32:00,
2013-03-02 01:42:00,31.0,27.0,-100.00,WSW,244,0.0,3.0,84,0.00,,,0.00,0.000000,,2013-03-02 07:42:00,
2013-03-02 01:52:00,31.0,27.0,-100.00,WSW,244,0.0,3.0,84,0.00,,,0.00,0.000000,,2013-03-02 07:52:00,
2013-03-02 02:01:00,31.0,27.0,-100.00,WSW,244,0.0,3.0,84,0.00,,,0.00,0.000000,,2013-03-02 08:01:00,
2013-03-02 02:32:00,29.0,26.0,-100.00,SW,234,0.0,2.0,89,0.00,,,0.00,0.000000,,2013-03-02 08:32:00,
2013-03-02 02:43:00,29.0,26.0,-100.00,SW,234,0.0,2.0,89,0.00,,,0.00,0.000000,,2013-03-02 08:43:00,
2013-03-02 02:52:00,29.0,26.0,-100.00,SW,234,0.0,2.0,89,0.00,,,0.00,0.000000,,2013-03-02 08:52:00,
2013-03-02 03:01:00,29.0,26.0,-100.00,SW,234,0.0,2.0,89,0.00,,,0.00,0.000000,,2013-03-02 09:01:00,
2013-03-02 03:32:00,29.0,27.0,-100.00,WSW,249,1.0,2.0,91,0.00,,,0.00,0.000000,,2013-03-02 09:32:00,
2013-03-02 03:42:00,29.0,27.0,-100.00,WSW,249,1.0,2.0,91,0.00,,,0.00,0.000000,,2013-03-02 09:42:00,
2013-03-02 03:52:00,29.0,27.0,-100.00,WSW,249,1.0,2.0,91,0.00,,,0.00,0.000000,,2013-03-02 09:52:00,
2013-03-02 04:01:00,29.0,27.0,-100.00,WSW,249,1.0,2.0,91,0.00,,,0.00,0.000000,,2013-03-02 10:01:00,
2013-03-02 04:32:00,29.0,27.0,-100.00,WSW,238,0.0,3.0,91,0.00,,,0.00,0.000000,,2013-03-02 10:32:00,
2013-03-02 04:43:00,29.0,27.0,-100.00,WSW,238,0.0,3.0,91,0.00,,,0.00,0.000000,,2013-03-02 10:43:00,
2013-03-02 04:52:00,29.0,27.0,-100.00,WSW,238,0.0,3.0,91,0.00,,,0.00,0.000000,,2013-03-02 10:52:00,
2013-03-02 05:01:00,29.0,27.0,-100.00,WSW,238,0.0,3.0,91,0.00,,,0.00,0.000000,,2013-03-02 11:01:00,
2013-03-02 05:32:00,29.0,27.0,-100.00,WSW,237,2.0,4.0,92,0.00,,,0.00,0.000000,,2013-03-02 11:32:00,
2013-03-02 05:42:00,29.0,27.0,-100.00,WSW,237,2.0,4.0,92,0.00,,,0.00,0.000000,,2013-03-02 11:42:00,
2013-03-02 05:52:00,29.0,27.0,-100.00,WSW,237,2.0,4.0,92,0.00,,,0.00,0.000000,,2013-03-02 11:52:00,
2013-03-02 06:02:00,29.0,27.0,-100.00,WSW,237,2.0,4.0,92,0.00,,,0.00,0.000000,,2013-03-02 12:02:00,
2013-03-02 06:33:00,29.0,27.0,-100.00,WNW,289,1.0,4.0,91,0.00,,,0.00,0.000000,,2013-03-02 12:33:00,
2013-03-02 06:43:00,29.0,27.0,-100.00,WNW,289,1.0,4.0,91,0.00,,,0.00,0.000000,,2013-03-02 12:43:00,
2013-03-02 06:53:00,29.0,27.0,-100.00,WNW,289,1.0,4.0,91,0.00,,,0.00,0.000000,,2013-03-02 12:53:00,
2013-03-02 07:01:00,29.0,27.0,-100.00,WNW,289,1.0,4.0,91,0.00,,,0.00,0.000000,,2013-03-02 13:01:00,
2013-03-02 07:32:00,30.0,27.0,-100.00,West,265,2.0,5.0,90,0.00,,,0.00,15.000000,,2013-03-02 13:32:00,
2013-03-02 07:42:00,30.0,27.0,-100.00,West,265,2.0,5.0,90,0.00,,,0.00,15.000000,,2013-03-02 13:42:00,
2013-03-02 07:52:00,30.0,27.0,-100.00,West,265,2.0,5.0,90,0.00,,,0.00,15.000000,,2013-03-02 13:52:00,
2013-03-02 08:01:00,30.0,27.0,-100.00,West,265,2.0,5.0,90,0.00,,,0.00,15.000000,,2013-03-02 14:01:00,
2013-03-02 08:32:00,36.0,29.0,-100.00,North,350,4.0,8.0,74,0.00,,,0.00,118.000000,,2013-03-02 14:32:00,
2013-03-02 08:42:00,36.0,29.0,-100.00,North,350,4.0,8.0,74,0.00,,,0.00,118.000000,,2013-03-02 14:42:00,
2013-03-02 08:52:00,36.0,29.0,-100.00,North,350,4.0,8.0,74,0.00,,,0.00,118.000000,,2013-03-02 14:52:00,
2013-03-02 09:02:00,36.0,29.0,-100.00,North,350,4.0,8.0,74,0.00,,,0.00,118.000000,,2013-03-02 15:02:00,
2013-03-02 09:32:00,41.0,29.0,-100.00,North,8,5.0,13.0,62,0.00,,,0.00,328.000000,,2013-03-02 15:32:00,
2013-03-02 09:42:00,41.0,29.0,-100.00,North,8,5.0,13.0,62,0.00,,,0.00,328.000000,,2013-03-02 15:42:00,
2013-03-02 09:52:00,41.0,29.0,-100.00,North,8,5.0,13.0,62,0.00,,,0.00,328.000000,,2013-03-02 15:52:00,
2013-03-02 10:01:00,41.0,29.0,-100.00,North,8,5.0,13.0,62,0.00,,,0.00,328.000000,,2013-03-02 16:01:00,
2013-03-02 10:32:00,42.0,27.0,-100.00,North,5,5.0,12.0,55,0.00,,,0.00,385.000000,,2013-03-02 16:32:00,
2013-03-02 10:42:00,42.0,27.0,-100.00,North,5,5.0,12.0,55,0.00,,,0.00,385.000000,,2013-03-02 16:42:00,
2013-03-02 10:52:00,42.0,27.0,-100.00,North,5,5.0,12.0,55,0.00,,,0.00,385.000000,,2013-03-02 16:52:00,
2013-03-02 11:01:00,42.0,27.0,-100.00,North,5,5.0,12.0,55,0.00,,,0.00,385.000000,,2013-03-02 17:01:00,
2013-03-02 11:32:00,43.0,25.0,-100.00,North,356,5.0,14.0,49,0.00,,,0.00,323.000000,,2013-03-02 17:32:00,
2013-03-02 11:42:00,43.0,25.0,-100.00,North,356,5.0,14.0,49,0.00,,,0.00,323.000000,,2013-03-02 17:42:00,
2013-03-02 11:52:00,43.0,25.0,-100.00,North,356,5.0,14.0,49,0.00,,,0.00,323.000000,,2013-03-02 17:52:00,
2013-03-02 12:02:00,43.0,25.0,-100.00,North,356,5.0,14.0,49,0.00,,,0.00,323.000000,,2013-03-02 18:02:00,
2013-03-02 12:32:00,42.0,24.0,-100.00,NW,321,6.0,14.0,49,0.00,,,0.00,226.000000,,2013-03-02 18:32:00,
2013-03-02 12:42:00,42.0,24.0,-100.00,NW,321,6.0,14.0,49,0.00,,,0.00,226.000000,,2013-03-02 18:42:00,
2013-03-02 12:52:00,42.0,24.0,-100.00,NW,321,6.0,14.0,49,0.00,,,0.00,226.000000,,2013-03-02 18:52:00,
2013-03-02 13:01:00,42.0,24.0,-100.00,NW,321,6.0,14.0,49,0.00,,,0.00,226.000000,,2013-03-02 19:01:00,
2013-03-02 13:32:00,41.0,24.0,-100.00,NW,323,5.0,12.0,50,0.00,,,0.00,173.000000,,2013-03-02 19:32:00,
2013-03-02 13:42:00,41.0,24.0,-100.00,NW,323,5.0,12.0,50,0.00,,,0.00,173.000000,,2013-03-02 19:42:00,
2013-03-02 13:52:00,41.0,24.0,-100.00,NW,323,5.0,12.0,50,0.00,,,0.00,173.000000,,2013-03-02 19:52:00,
2013-03-02 14:01:00,41.0,24.0,-100.00,NW,323,5.0,12.0,50,0.00,,,0.00,173.000000,,2013-03-02 20:01:00,
2013-03-02 14:32:00,42.0,22.0,-100.00,NNW,339,6.0,19.0,45,0.00,,,0.00,190.000000,,2013-03-02 20:32:00,
2013-03-02 14:42:00,42.0,22.0,-100.00,NNW,339,6.0,19.0,45,0.00,,,0.00,190.000000,,2013-03-02 20:42:00,
2013-03-02 14:53:00,42.0,22.0,-100.00,NNW,339,6.0,19.0,45,0.00,,,0.00,190.000000,,2013-03-02 20:53:00,
2013-03-02 15:02:00,42.0,22.0,-100.00,NNW,339,6.0,19.0,45,0.00,,,0.00,190.000000,,2013-03-02 21:02:00,
2013-03-02 15:32:00,41.0,22.0,-100.00,North,3,5.0,13.0,46,0.00,,,-99.99,162.000000,,2013-03-02 21:32:00,
2013-03-02 15:42:00,41.0,22.0,-100.00,North,3,5.0,13.0,46,0.00,,,-99.99,162.000000,,2013-03-02 21:42:00,
2013-03-02 15:52:00,41.0,22.0,-100.00,North,3,5.0,13.0,46,0.00,,,-99.99,162.000000,,2013-03-02 21:52:00,
2013-03-02 16:02:00,41.0,22.0,-100.00,North,3,5.0,13.0,46,0.00,,,-99.99,162.000000,,2013-03-02 22:02:00,
2013-03-02 16:32:00,40.0,22.0,-100.00,NNW,345,6.0,13.0,49,0.00,,,0.00,111.000000,,2013-03-02 22:32:00,
2013-03-02 16:42:00,40.0,22.0,-100.00,NNW,345,6.0,13.0,49,0.00,,,0.00,111.000000,,2013-03-02 22:42:00,
2013-03-02 16:52:00,40.0,22.0,-100.00,NNW,345,6.0,13.0,49,0.00,,,0.00,111.000000,,2013-03-02 22:52:00,
2013-03-02 17:01:00,40.0,22.0,-100.00,NNW,345,6.0,13.0,49,0.00,,,0.00,111.000000,,2013-03-02 23:01:00,
2013-03-02 17:32:00,38.0,22.0,-100.00,NNW,346,6.0,15.0,52,0.00,,,0.00,44.000000,,2013-03-02 23:32:00,
2013-03-02 17:42:00,38.0,22.0,-100.00,NNW,346,6.0,15.0,52,0.00,,,0.00,44.000000,,2013-03-02 23:42:00,
2013-03-02 17:52:00,38.0,22.0,-100.00,NNW,346,6.0,15.0,52,0.00,,,0.00,44.000000,,2013-03-02 23:52:00,
2013-03-02 18:02:00,38.0,22.0,-100.00,NNW,346,6.0,15.0,52,0.00,,,0.00,44.000000,,2013-03-03 00:02:00,
2013-03-02 18:32:00,37.0,22.0,-100.00,NNW,345,5.0,16.0,54,0.00,,,0.00,9.000000,,2013-03-03 00:32:00,
2013-03-02 18:42:00,37.0,22.0,-100.00,NNW,345,5.0,16.0,54,0.00,,,0.00,9.000000,,2013-03-03 00:42:00,
2013-03-02 18:52:00,37.0,22.0,-100.00,NNW,345,5.0,16.0,54,0.00,,,0.00,9.000000,,2013-03-03 00:52:00,
2013-03-02 19:01:00,37.0,22.0,-100.00,NNW,345,5.0,16.0,54,0.00,,,0.00,9.000000,,2013-03-03 01:01:00,
2013-03-02 19:32:00,37.0,21.0,-100.00,NNW,347,5.0,15.0,53,0.00,,,0.00,0.000000,,2013-03-03 01:32:00,
2013-03-02 19:42:00,37.0,21.0,-100.00,NNW,347,5.0,15.0,53,0.00,,,0.00,0.000000,,2013-03-03 01:42:00,
2013-03-02 19:52:00,37.0,21.0,-100.00,NNW,347,5.0,15.0,53,0.00,,,0.00,0.000000,,2013-03-03 01:52:00,
2013-03-02 20:01:00,37.0,21.0,-100.00,NNW,347,5.0,15.0,53,0.00,,,0.00,0.000000,,2013-03-03 02:01:00,
2013-03-02 20:32:00,37.0,21.0,-100.00,North,358,6.0,14.0,53,0.00,,,0.00,0.000000,,2013-03-03 02:32:00,
2013-03-02 20:42:00,37.0,21.0,-100.00,North,358,6.0,14.0,53,0.00,,,0.00,0.000000,,2013-03-03 02:42:00,
2013-03-02 20:52:00,37.0,21.0,-100.00,North,358,6.0,14.0,53,0.00,,,0.00,0.000000,,2013-03-03 02:52:00,
2013-03-02 21:01:00,37.0,21.0,-100.00,North,358,6.0,14.0,53,0.00,,,0.00,0.000000,,2013-03-03 03:01:00,
2013-03-02 21:32:00,34.0,22.0,-100.00,NNE,12,4.0,11.0,60,0.00,,,0.00,0.000000,,2013-03-03 03:32:00,
2013-03-02 21:42:00,34.0,22.0,-100.00,NNE,12,4.0,11.0,60,0.00,,,0.00,0.000000,,2013-03-03 03:42:00,
2013-03-02 21:52:00,34.0,22.0,-100.00,NNE,12,4.0,11.0,60,0.00,,,0.00,0.000000,,2013-03-03 03:52:00,
2013-03-02 22:01:00,34.0,22.0,-100.00,NNE,12,4.0,11.0,60,0.00,,,0.00,0.000000,,2013-03-03 04:01:00,
2013-03-02 22:32:00,33.0,22.0,-100.00,North,8,3.0,10.0,63,0.00,,,0.00,0.000000,,2013-03-03 04:32:00,
2013-03-02 22:42:00,33.0,22.0,-100.00,North,8,3.0,10.0,63,0.00,,,0.00,0.000000,,2013-03-03 04:42:00,
2013-03-02 22:52:00,33.0,22.0,-100.00,North,8,3.0,10.0,63,0.00,,,0.00,0.000000,,2013-03-03 04:52:00,
2013-03-02 23:02:00,33.0,22.0,-100.00,North,8,3.0,10.0,63,0.00,,,0.00,0.000000,,2013-03-03 05:02:00,
2013-03-02 23:32:00,30.0,23.0,-100.00,NW,326,2.0,4.0,75,0.00,,,0.00,0.000000,,2013-03-03 05:32:00,
2013-03-02 23:42:00,30.0,23.0,-100.00,NW,326,2.0,4.0,75,0.00,,,0.00,0.000000,,2013-03-03 05:42:00,
2013-03-02 23:52:00,30.0,23.0,-100.00,NW,326,2.0,4.0,75,0.00,,,0.00,0.000000,,2013-03-03 05:52:00,